Weather History for Fryeburg, ME

Change the Weather History Date:

Monday, December 31, 2012

  Actual Average Record
Temperature  
Mean Temperature 25 °F -  
Max Temperature 34 °F 29 °F 42 °F (2004)
Min Temperature 16 °F 9 °F -14 °F (2013)
Degree Days  
Heating Degree Days 40    
Moisture  
Dew Point 14 °F    
Average Humidity 58    
Maximum Humidity 72    
Minimum Humidity 48    
Precipitation  
Precipitation 0.00 in - - ()
Sea Level Pressure  
Sea Level Pressure 29.82 in    
Wind  
Wind Speed 9 mph (West)    
Max Wind Speed 16 mph    
Max Gust Speed 33 mph    
Visibility 10 miles    
Events      
Averages and records for this station are not official NWS values.
T = Trace of Precipitation, MM = Missing Value Source: NWS Daily Summary

Daily Weather History Graph

Daily Weather History Graph

Search for Another Location

Airport:

Trip Planner

Search our weather history database for the weather conditions in past years. The results will help you decide how hot, cold, wet, or windy it might be!

Date:

Astronomy

Dec. 31, 2012 Rise Set
Actual Time 7:18 AM EST 4:15 PM EST
Civil Twilight 6:45 AM EST 4:48 PM EST
Nautical Twilight 6:09 AM EST 5:25 PM EST
Astronomical Twilight 5:34 AM EST 6:00 PM EST
Moon 7:51 PM EST (12/31) 8:51 AM EST (12/31)
Length of Visible Light 10h 03m
Length of Day
8h 57m
Waning Gibbous, 90% of the Moon is Illuminated
Dec 31
Waning Gibbous
Jan 4
Last Quarter
Jan 11
New
Jan 18
First Quarter
Jan 26
Full

Hourly Weather History & Observations

Time (EST) Temp. Windchill Dew Point Humidity Pressure Visibility Wind Dir Wind Speed Gust Speed Precip Events Conditions
12:54 AM 16.0 °F 7.4 °F 3.0 °F 57% 29.86 in 10.0 mi Variable 5.8 mph - N/A   Clear
1:54 AM 21.0 °F 9.3 °F 3.9 °F 48% 29.88 in 10.0 mi WNW 11.5 mph 23.0 mph N/A   Clear
2:54 AM 21.9 °F 9.8 °F 5.0 °F 48% 29.88 in 10.0 mi West 12.7 mph 19.6 mph N/A   Clear
3:54 AM 21.9 °F 11.0 °F 6.1 °F 51% 29.88 in 10.0 mi West 10.4 mph 25.3 mph N/A   Clear
4:54 AM 21.0 °F 14.6 °F 6.1 °F 53% 29.87 in 10.0 mi West 4.6 mph - N/A   Clear
5:54 AM 23.0 °F 13.9 °F 8.1 °F 53% 29.86 in 10.0 mi West 8.1 mph - N/A   Clear
6:54 AM 25.0 °F 13.6 °F 9.0 °F 51% 29.87 in 10.0 mi West 12.7 mph 23.0 mph N/A   Clear
7:54 AM 23.0 °F - 9.0 °F 55% 29.88 in 10.0 mi Calm Calm - N/A   Clear
8:54 AM 28.9 °F 17.7 °F 12.0 °F 49% 29.87 in 10.0 mi West 15.0 mph 25.3 mph N/A   Clear
9:54 AM 30.9 °F 20.2 °F 14.0 °F 50% 29.87 in 10.0 mi West 15.0 mph 21.9 mph N/A   Clear
10:54 AM 32.0 °F 21.2 °F 16.0 °F 52% 29.86 in 10.0 mi West 16.1 mph 28.8 mph N/A   Clear
11:54 AM 33.1 °F 23.9 °F 17.1 °F 52% 29.86 in 10.0 mi West 12.7 mph 20.7 mph N/A   Clear
12:54 PM 33.1 °F 23.9 °F 17.1 °F 52% 29.84 in 10.0 mi West 12.7 mph 26.5 mph 0.00 in   Clear
1:54 PM 34.0 °F 23.8 °F 18.0 °F 52% 29.79 in 10.0 mi West 16.1 mph 27.6 mph N/A   Clear
2:54 PM 33.1 °F 23.0 °F 18.0 °F 54% 29.81 in 10.0 mi West 15.0 mph 33.4 mph 0.00 in   Clear
3:54 PM 32.0 °F 25.6 °F 18.0 °F 56% 29.80 in 10.0 mi Variable 6.9 mph - N/A   Clear
4:54 PM 30.0 °F 25.2 °F 19.0 °F 64% 29.81 in 10.0 mi West 4.6 mph - 0.00 in   Partly Cloudy
5:54 PM 28.0 °F 22.8 °F 19.0 °F 69% 29.79 in 10.0 mi SW 4.6 mph - 0.00 in   Clear
6:54 PM 28.0 °F 20.8 °F 19.9 °F 72% 29.78 in 10.0 mi WSW 6.9 mph - N/A   Partly Cloudy
7:54 PM 30.0 °F 21.7 °F 21.9 °F 72% 29.77 in 10.0 mi SW 9.2 mph 18.4 mph N/A   Overcast
8:54 PM 30.0 °F 23.2 °F 21.9 °F 72% 29.75 in 10.0 mi SW 6.9 mph - N/A   Overcast
9:54 PM 30.0 °F 25.2 °F 21.0 °F 69% 29.73 in 10.0 mi SW 4.6 mph - N/A   Overcast
10:54 PM 30.0 °F 25.2 °F 21.0 °F 69% 29.70 in 10.0 mi SSW 4.6 mph - 0.00 in   Overcast
11:54 PM 30.9 °F 24.3 °F 21.0 °F 67% 29.65 in 10.0 mi South 6.9 mph - 0.00 in   Overcast